Stündliche Wetter Otradnyy

Heute, 14 April, Mittwoch

Zeit Temperatur Niederschläge Wind Luftdruck Luftfeuchtigkeit
00:00 -1°C° 0 mm 3 m/S 761 mmHg 92%
01:00 -1°C° 0 mm 3 m/S 760 mmHg 92%
02:00 -1°C° 0 mm 3 m/S 760 mmHg 92%
03:00 -1°C° 0 mm 3 m/S 760 mmHg 93%
04:00 -1°C° 0 mm 3 m/S 760 mmHg 93%
05:00 -1°C° 0 mm 3 m/S 760 mmHg 94%
06:00 -1°C° 0 mm 3 m/S 760 mmHg 95%
07:00 0°C° 0 mm 3 m/S 759 mmHg 95%
08:00 0°C° 0 mm 3 m/S 759 mmHg 94%
09:00 +1°C° 0 mm 3 m/S 758 mmHg 94%
10:00 +1°C° 0.5 mm 3 m/S 758 mmHg 95%
11:00 -1°C° 0.5 mm 4 m/S 757 mmHg 96%
12:00 -1°C° 0.5 mm 4 m/S 756 mmHg 97%
13:00 0°C° 0.7 mm 4 m/S 755 mmHg 97%
14:00 +1°C° 0.7 mm 5 m/S 754 mmHg 97%
15:00 +1°C° 0.7 mm 5 m/S 753 mmHg 97%
16:00 +1°C° 0.2 mm 5 m/S 753 mmHg 97%
17:00 +2°C° 0.2 mm 5 m/S 754 mmHg 97%
18:00 +2°C° 0.2 mm 5 m/S 754 mmHg 97%
19:00 +3°C° 0 mm 4 m/S 754 mmHg 97%
20:00 +3°C° 0 mm 4 m/S 755 mmHg 97%
21:00 +2°C° 0 mm 3 m/S 755 mmHg 97%
22:00 +2°C° 0.1 mm 3 m/S 756 mmHg 97%
23:00 +1°C° 0.1 mm 3 m/S 756 mmHg 96%

Morgen, 15 April, Donnerstag

Zeit Temperatur Niederschläge Wind Luftdruck Luftfeuchtigkeit
00:00 +2°C° 0.1 mm 2 m/S 757 mmHg 96%
01:00 +1°C° 0 mm 2 m/S 757 mmHg 97%
02:00 +2°C° 0 mm 1 m/S 758 mmHg 97%
03:00 +2°C° 0 mm 1 m/S 758 mmHg 98%
04:00 +2°C° 0 mm 1 m/S 758 mmHg 98%
05:00 +2°C° 0 mm 1 m/S 759 mmHg 98%
06:00 +2°C° 0 mm 1 m/S 759 mmHg 97%
07:00 +2°C° 0 mm 1 m/S 759 mmHg 96%
08:00 +3°C° 0 mm 1 m/S 759 mmHg 94%
09:00 +2°C° 0 mm 2 m/S 759 mmHg 93%
10:00 +3°C° 0 mm 2 m/S 758 mmHg 94%
11:00 +3°C° 0 mm 2 m/S 758 mmHg 95%
12:00 +3°C° 0 mm 2 m/S 758 mmHg 96%
13:00 +3°C° 0 mm 3 m/S 757 mmHg 93%
14:00 +4°C° 0 mm 3 m/S 757 mmHg 90%
15:00 +5°C° 0 mm 4 m/S 756 mmHg 87%
16:00 +5°C° 0 mm 4 m/S 756 mmHg 88%
17:00 +4°C° 0 mm 4 m/S 755 mmHg 88%
18:00 +4°C° 0 mm 4 m/S 755 mmHg 89%
19:00 +4°C° 0 mm 4 m/S 755 mmHg 90%
20:00 +4°C° 0 mm 4 m/S 754 mmHg 91%
21:00 +3°C° 0 mm 4 m/S 754 mmHg 92%
22:00 +2°C° 0 mm 5 m/S 753 mmHg 93%
23:00 +2°C° 0 mm 5 m/S 753 mmHg 94%

übermorgen, 16 April, Freitag

Zeit Temperatur Niederschläge Wind Luftdruck Luftfeuchtigkeit
00:00 +2°C° 0 mm 5 m/S 752 mmHg 94%
01:00 +2°C° 0 mm 5 m/S 752 mmHg 94%
02:00 +2°C° 0 mm 5 m/S 751 mmHg 94%
03:00 +2°C° 0 mm 5 m/S 750 mmHg 94%
04:00 +2°C° 0 mm 5 m/S 750 mmHg 95%
05:00 +2°C° 0 mm 5 m/S 750 mmHg 96%
06:00 +2°C° 0 mm 5 m/S 749 mmHg 97%
07:00 +3°C° 0 mm 5 m/S 749 mmHg 96%
08:00 +3°C° 0 mm 5 m/S 749 mmHg 96%
09:00 +3°C° 0 mm 5 m/S 748 mmHg 96%
10:00 +5°C° 0 mm 5 m/S 748 mmHg 96%
11:00 +5°C° 0 mm 5 m/S 747 mmHg 96%
12:00 +6°C° 0 mm 5 m/S 747 mmHg 96%
13:00 +3°C° 0.5 mm 5 m/S 748 mmHg 96%
14:00 +1°C° 0.5 mm 4 m/S 748 mmHg 96%
15:00 -1°C° 0.5 mm 4 m/S 749 mmHg 96%
16:00 -1°C° 1 mm 4 m/S 749 mmHg 96%
17:00 0°C° 1 mm 3 m/S 750 mmHg 97%
18:00 0°C° 1 mm 3 m/S 751 mmHg 97%
19:00 -1°C° 0.2 mm 3 m/S 751 mmHg 94%
20:00 -2°C° 0.2 mm 4 m/S 752 mmHg 90%
21:00 -2°C° 0.2 mm 5 m/S 753 mmHg 87%
22:00 -5°C° 0 mm 5 m/S 754 mmHg 85%
23:00 -7°C° 0 mm 5 m/S 755 mmHg 83%

17 April, Samstag

Zeit Temperatur Niederschläge Wind Luftdruck Luftfeuchtigkeit
00:00 -8°C° 0 mm 4 m/S 756 mmHg 81%
01:00 -9°C° 0 mm 4 m/S 756 mmHg 81%
02:00 -9°C° 0 mm 3 m/S 757 mmHg 80%
03:00 -10°C° 0 mm 3 m/S 758 mmHg 80%
04:00 -10°C° 0 mm 3 m/S 758 mmHg 79%
05:00 -9°C° 0 mm 2 m/S 758 mmHg 77%
06:00 -9°C° 0 mm 2 m/S 759 mmHg 76%
07:00 -8°C° 0 mm 2 m/S 759 mmHg 69%
08:00 -7°C° 0 mm 2 m/S 759 mmHg 62%
09:00 -6°C° 0 mm 2 m/S 759 mmHg 55%
10:00 -5°C° 0 mm 2 m/S 758 mmHg 52%
11:00 -4°C° 0 mm 2 m/S 757 mmHg 50%
12:00 -2°C° 0 mm 2 m/S 757 mmHg 47%
13:00 -2°C° 0 mm 2 m/S 756 mmHg 47%
14:00 -1°C° 0 mm 2 m/S 755 mmHg 46%
15:00 -1°C° 0 mm 3 m/S 755 mmHg 45%
16:00 -1°C° 0 mm 3 m/S 754 mmHg 49%
17:00 -1°C° 0 mm 2 m/S 753 mmHg 53%
18:00 -1°C° 0 mm 2 m/S 752 mmHg 56%
19:00 -2°C° 0 mm 2 m/S 752 mmHg 63%
20:00 -3°C° 0 mm 2 m/S 751 mmHg 69%
21:00 -1°C° 0 mm 1 m/S 750 mmHg 76%
22:00 -1°C° 0 mm 1 m/S 750 mmHg 77%
23:00 -2°C° 0 mm 1 m/S 749 mmHg 79%

18 April, Sonntag

Zeit Temperatur Niederschläge Wind Luftdruck Luftfeuchtigkeit
00:00 -2°C° 0 mm 1 m/S 748 mmHg 81%
01:00 -2°C° 0 mm 1 m/S 748 mmHg 83%
02:00 -2°C° 0 mm 1 m/S 747 mmHg 85%
03:00 -2°C° 0 mm 1 m/S 746 mmHg 87%
04:00 -4°C° 0 mm 2 m/S 746 mmHg 84%
05:00 -5°C° 0 mm 3 m/S 746 mmHg 82%
06:00 -5°C° 0 mm 3 m/S 746 mmHg 79%
07:00 -5°C° 0 mm 4 m/S 747 mmHg 74%
08:00 -6°C° 0 mm 5 m/S 748 mmHg 68%
09:00 -6°C° 0 mm 6 m/S 749 mmHg 62%
10:00 -6°C° 0 mm 6 m/S 749 mmHg 55%
11:00 -5°C° 0 mm 5 m/S 749 mmHg 49%
12:00 -4°C° 0 mm 5 m/S 750 mmHg 42%
13:00 -4°C° 0 mm 5 m/S 750 mmHg 41%
14:00 -4°C° 0 mm 5 m/S 750 mmHg 39%
15:00 -2°C° 0 mm 5 m/S 750 mmHg 37%
16:00 -3°C° 0 mm 4 m/S 751 mmHg 39%
17:00 -3°C° 0 mm 4 m/S 751 mmHg 41%
18:00 -2°C° 0 mm 3 m/S 751 mmHg 44%
19:00 -4°C° 0 mm 2 m/S 751 mmHg 54%
20:00 -3°C° 0 mm 1 m/S 752 mmHg 63%
21:00 -5°C° 0 mm 0 m/S 752 mmHg 73%
22:00 -6°C° 0 mm 0 m/S 752 mmHg 74%
23:00 -6°C° 0 mm 1 m/S 752 mmHg 76%

19 April, Montag

Zeit Temperatur Niederschläge Wind Luftdruck Luftfeuchtigkeit
00:00 -6°C° 0 mm 1 m/S 752 mmHg 77%
01:00 -6°C° 0 mm 1 m/S 752 mmHg 75%
02:00 -6°C° 0 mm 1 m/S 752 mmHg 74%
03:00 -6°C° 0 mm 1 m/S 751 mmHg 73%
04:00 -6°C° 0 mm 2 m/S 751 mmHg 72%
05:00 -6°C° 0 mm 2 m/S 751 mmHg 72%
06:00 -6°C° 0 mm 2 m/S 750 mmHg 72%
07:00 -7°C° 0 mm 3 m/S 750 mmHg 66%
08:00 -6°C° 0 mm 3 m/S 750 mmHg 61%
09:00 -5°C° 0 mm 4 m/S 750 mmHg 55%
10:00 -5°C° 0 mm 4 m/S 749 mmHg 53%
11:00 -5°C° 0 mm 5 m/S 749 mmHg 50%
12:00 -5°C° 0 mm 5 m/S 748 mmHg 47%
13:00 -5°C° 0.1 mm 5 m/S 749 mmHg 55%
14:00 -6°C° 0.1 mm 5 m/S 750 mmHg 62%
15:00 -5°C° 0.1 mm 4 m/S 750 mmHg 69%
16:00 -5°C° 0.1 mm 4 m/S 751 mmHg 65%
17:00 -5°C° 0.1 mm 3 m/S 752 mmHg 62%
18:00 -5°C° 0.1 mm 3 m/S 752 mmHg 58%
19:00 -4°C° 0 mm 2 m/S 753 mmHg 60%
20:00 -4°C° 0 mm 2 m/S 753 mmHg 62%
21:00 -3°C° 0 mm 1 m/S 754 mmHg 64%
22:00 -3°C° 0 mm 1 m/S 754 mmHg 66%
23:00 -3°C° 0 mm 1 m/S 755 mmHg 67%
Mehr zeigen

Wir brauchen deine Erlaubnis

Meteoprog und unser Service Anbieter werden persönliche Daten aufbewahren, so wie Cookies, Geräte Bezeichnung oder ähnliche Technologien von deinem Gerät und Prozess, so wie Persönliche Daten Inhalte und Werbungen, genauso wie social Media und den Verkehr zu analysieren.

  • Aufbewahrung und/oder Zugang zu deiner Geräte Informationen.

    Cookies, Geräte Bezeichnung oder andere Informationen, können aufbewahrt oder Zugang zu deinem Gerät erhalten, für den Grund, der oben angegeben wird.

  • Personalisierte Werbung und Inhalte, Messungen, Einblick in das Publikum und Produkt Entwicklung.

    Werbungen und Inhalte können personalisiert werden, basierend auf ein Profil. Mehr Daten können besser personalisierte Werbungen und Inhalte hinzufügen. Werbung und Inhalte können gezeigt und gemessen werden. Einblicke über das Publikum, welche die Werbung gesehen haben und den Inhalt, können abgeleitet werden. So wie Daten können genutzt werden, um es zu verbessern oder die Benutzer Erfahrung zu verbessern das System und die Software.

Wenn du “Ich stimme zu” klickst, erlaubst du uns, die Cookies zu benutzen die Geräte Bezeichnung, den Web oder ähnliche Technologien zu benutzen. Deine Settings, können in deinem Gerät bei deinem Browser geändert werden.

Für den bestimmten Zweck, berechtigten Interessen beruhen darauf, mehr als auf den Inhalt. Du kannst mehr darüber in unseren Privaten und Cookie Politik lesen.